Location: Newark
(60.6561°N, 46.5772°E)
Time: 12:01:27
(UTC+00:00)

Tiros 1 despin weight - Visible Passes

Search period start: 19 October 2019 00:00
Search period end: 29 October 2019 00:00
Orbit: 593 x 643 km, 48.2° (Epoch: 19 October)

Date Brightness Start Highest point End Pass type
(mag) Time Alt. Az. Time Alt. Az. Time Alt. Az.
19 Oct ? 00:16:34 15° SSE 00:16:34 15° SSE 00:18:22 10° SE visible
19 Oct ? 01:53:38 13° SW 01:55:46 17° S 01:58:44 10° SSE visible
20 Oct ? 00:32:31 17° SSE 00:32:31 17° SSE 00:34:40 10° SE visible
20 Oct ? 02:09:34 11° SW 02:11:53 14° SSW 02:14:23 10° SSE visible
21 Oct ? 00:48:29 17° S 00:48:29 17° S 00:50:45 10° SE visible
21 Oct ? 02:26:31 10° SW 02:27:57 11° SSW 02:29:22 10° S visible
22 Oct ? 01:04:29 15° S 01:04:29 15° S 01:06:36 10° SSE visible
23 Oct ? 01:20:33 13° SSW 01:20:33 13° SSW 01:22:03 10° S visible
